Location: Newark
(49.8969°N, 3.3422°E)
Time: 22:35:13
(UTC+00:00)

Tiros 1 - Pass Details

Date: 26 January 2021
Orbit: 630 x 664 km, 48.4° (Epoch: 08 March)

Event Time Altitude Azimuth Distance (km) Brightness Sun altitude
Rises 17:03:25 0° 224° (SW) 2,929 12.0 -5.5°
Reaches altitude 10° 17:05:54 10° 215° (SW) 2,018 10.7 -5.9°
Maximum altitude 17:10:04 33° 151° (SSE) 1,057 8.2 -6.5°
Drops below altitude 10° 17:14:13 10° 87° (E) 2,012 9.1 -7.1°
Enters shadow 17:14:41 - 85° (E) 2,179 9.2 -7.2°
